�������l�o���
Date,Time,MP-1(��Sv/h),MP-2(��Sv/h),MP-3(��Sv/h),MP-4(��Sv/h),MP-5(��Sv/h),MP-6(��Sv/h),MP-7(��Sv/h),MP-8(��Sv/h),����,����(m/s),���J
2017/07/30,00:00,0.932,1.458,0.973,1.748,1.210,0.511,0.931,0.862,�k,5.4,�L
2017/07/30,00:10,0.932,1.459,0.973,1.746,1.210,0.513,0.930,0.862,�k,5.7,�L
2017/07/30,00:20,0.933,1.458,0.976,1.747,1.205,0.512,0.929,0.863,�k,5.6,�L
2017/07/30,00:30,0.933,1.458,0.974,1.740,1.206,0.512,0.928,0.860,�k,4.7,�L
2017/07/30,00:40,0.931,1.456,0.974,1.742,1.203,0.513,0.927,0.859,�k�k��,4.3,�L
2017/07/30,00:50,0.931,1.454,0.974,1.738,1.203,0.512,0.927,0.858,�k�k��,4.5,�L
2017/07/30,01:00,0.930,1.454,0.973,1.734,1.200,0.512,0.930,0.859,�k�k��,4.6,�L
2017/07/30,01:10,0.932,1.454,0.974,1.739,1.203,0.514,0.929,0.861,�k�k��,4.2,�L
2017/07/30,01:20,0.927,1.445,0.970,1.735,1.198,0.511,0.927,0.860,�k,5.3,�L
2017/07/30,01:30,0.925,1.441,0.971,1.731,1.198,0.512,0.929,0.861,�k�k��,6.0,�L
2017/07/30,01:40,0.928,1.447,0.970,1.733,1.199,0.512,0.930,0.860,�k,3.9,�L
2017/07/30,01:50,0.930,1.447,0.972,1.738,1.201,0.511,0.928,0.860,�k�k��,3.2,�L
2017/07/30,02:00,0.929,1.448,0.970,1.737,1.202,0.512,0.929,0.860,�k�k��,4.4,�L
2017/07/30,02:10,0.929,1.450,0.970,1.741,1.203,0.510,0.930,0.862,�k,4.4,�L
2017/07/30,02:20,0.930,1.452,0.975,1.745,1.203,0.512,0.930,0.859,�k�k��,3.7,�L
2017/07/30,02:30,0.930,1.455,0.973,1.741,1.203,0.510,0.929,0.861,�k�k��,3.3,�L
2017/07/30,02:40,0.931,1.454,0.973,1.744,1.201,0.510,0.928,0.860,�k�k��,3.9,�L
2017/07/30,02:50,0.930,1.452,0.972,1.741,1.199,0.512,0.926,0.858,�k��,3.5,�L
2017/07/30,03:00,0.928,1.450,0.974,1.746,1.202,0.509,0.928,0.859,�k��,3.9,�L
2017/07/30,03:10,0.929,1.450,0.973,1.742,1.200,0.510,0.928,0.860,�k��,4.2,�L
2017/07/30,03:20,0.928,1.450,0.973,1.741,1.198,0.511,0.926,0.860,�k��,4.6,�L
2017/07/30,03:30,0.929,1.446,0.971,1.740,1.197,0.511,0.925,0.858,�k�k��,4.8,�L
2017/07/30,03:40,0.928,1.448,0.972,1.738,1.201,0.509,0.927,0.858,�k�k��,4.8,�L
2017/07/30,03:50,0.927,1.449,0.973,1.742,1.197,0.510,0.928,0.859,�k�k��,5.2,�L
2017/07/30,04:00,0.929,1.450,0.971,1.740,1.201,0.509,0.929,0.861,�k�k��,6.2,�L
2017/07/30,04:10,0.930,1.451,0.972,1.742,1.200,0.510,0.928,0.860,�k�k��,6.5,�L
2017/07/30,04:20,0.928,1.452,0.970,1.744,1.200,0.510,0.929,0.862,�k�k��,4.4,�L
2017/07/30,04:30,0.928,1.446,0.969,1.743,1.195,0.510,0.927,0.857,�k�k��,3.2,�L
2017/07/30,04:40,0.926,1.442,0.970,1.737,1.192,0.509,0.925,0.858,�k�k��,4.7,�L
2017/07/30,04:50,0.927,1.446,0.970,1.741,1.195,0.509,0.927,0.860,�k�k��,4.4,�L
2017/07/30,05:00,0.928,1.448,0.969,1.739,1.196,0.510,0.926,0.860,�k��,3.8,�L
2017/07/30,05:10,0.927,1.449,0.970,1.739,1.198,0.510,0.928,0.861,�k��,4.0,�L
2017/07/30,05:20,0.929,1.451,0.970,1.741,1.197,0.510,0.929,0.860,�k�k��,5.0,�L
2017/07/30,05:30,0.929,1.451,0.971,1.743,1.200,0.509,0.926,0.861,�k�k��,6.0,�L
2017/07/30,05:40,0.929,1.452,0.973,1.744,1.198,0.511,0.926,0.860,�k�k��,5.2,�L
2017/07/30,05:50,0.930,1.452,0.972,1.743,1.202,0.510,0.927,0.863,�k��,3.7,�L
2017/07/30,06:00,0.930,1.452,0.974,1.743,1.201,0.509,0.929,0.862,�k��,4.0,�L
2017/07/30,06:10,0.930,1.458,0.973,1.747,1.201,0.510,0.927,0.859,�k��,3.9,�L
2017/07/30,06:20,0.929,1.453,0.972,1.746,1.200,0.511,0.927,0.860,�k��,4.2,�L
2017/07/30,06:30,0.930,1.455,0.973,1.747,1.202,0.509,0.927,0.863,�k��,3.7,�L
2017/07/30,06:40,0.930,1.457,0.974,1.747,1.203,0.510,0.927,0.859,�k��,3.8,�L
2017/07/30,06:50,0.928,1.452,0.973,1.749,1.203,0.509,0.925,0.860,�k�k��,3.5,�L
2017/07/30,07:00,0.932,1.455,0.974,1.748,1.204,0.507,0.926,0.860,�k��,3.2,�L
2017/07/30,07:10,0.931,1.456,0.974,1.752,1.206,0.509,0.928,0.860,�k�k��,4.0,��
2017/07/30,07:20,0.933,1.459,0.973,1.748,1.204,0.511,0.927,0.858,�k�k��,4.5,��
2017/07/30,07:30,0.933,1.458,0.975,1.751,1.206,0.509,0.929,0.863,�k�k��,3.7,��
2017/07/30,07:40,0.934,1.460,0.975,1.753,1.208,0.509,0.930,0.860,�k�k��,3.8,�L
2017/07/30,07:50,0.934,1.456,0.974,1.753,1.206,0.510,0.930,0.862,�k�k��,3.9,�L
2017/07/30,08:00,0.935,1.458,0.974,1.751,1.206,0.509,0.929,0.861,�k��,3.5,�L
2017/07/30,08:10,0.932,1.460,0.974,1.754,1.209,0.509,0.930,0.859,�k�k��,2.6,�L
2017/07/30,08:20,0.933,1.459,0.975,1.755,1.206,0.511,0.931,0.861,�k�k��,3.4,��
2017/07/30,08:30,0.933,1.462,0.976,1.757,1.209,0.508,0.930,0.862,�k��,3.6,��
2017/07/30,08:40,0.934,1.460,0.976,1.754,1.209,0.509,0.930,0.860,�k�k��,3.1,��
2017/07/30,08:50,0.934,1.461,0.977,1.756,1.209,0.510,0.929,0.860,�k�k��,2.8,��
2017/07/30,09:00,0.933,1.461,0.978,1.760,1.210,0.511,0.932,0.862,�k�k��,2.6,��
2017/07/30,09:10,0.935,1.462,0.977,1.758,1.210,0.512,0.933,0.860,�k�k��,2.8,��
2017/07/30,09:20,0.937,1.464,0.978,1.758,1.211,0.510,0.932,0.862,�k�k��,2.6,��
2017/07/30,09:30,0.936,1.466,0.977,1.761,1.213,0.511,0.931,0.862,�k�k��,3.1,��
2017/07/30,09:40,0.937,1.463,0.979,1.762,1.212,0.510,0.934,0.863,�k�k��,2.3,��
2017/07/30,09:50,0.936,1.466,0.978,1.760,1.209,0.510,0.935,0.862,�k,2.9,��
2017/07/30,10:00,0.939,1.466,0.980,1.764,1.211,0.512,0.934,0.865,�k,2.0,��
2017/07/30,10:10,0.938,1.470,0.978,1.760,1.211,0.512,0.934,0.864,�k��,2.0,��
2017/07/30,10:20,0.940,1.468,0.980,1.759,1.210,0.513,0.935,0.864,�k,2.0,��
2017/07/30,10:30,0.942,1.469,0.980,1.762,1.216,0.513,0.936,0.865,�k�k��,2.6,��
2017/07/30,10:40,0.942,1.472,0.981,1.763,1.215,0.512,0.937,0.865,�k�k��,4.0,��
2017/07/30,10:50,0.942,1.471,0.982,1.763,1.220,0.513,0.935,0.865,�k�k��,4.4,��
2017/07/30,11:00,0.943,1.474,0.980,1.763,1.218,0.512,0.937,0.867,�k�k��,4.1,��
2017/07/30,11:10,0.944,1.475,0.979,1.764,1.218,0.514,0.937,0.866,�k,4.2,��
2017/07/30,11:20,0.942,1.476,0.983,1.761,1.221,0.514,0.937,0.865,�k�k��,4.3,��
2017/07/30,11:30,0.943,1.475,0.982,1.762,1.221,0.513,0.936,0.865,�k�k��,4.2,��
2017/07/30,11:40,0.945,1.477,0.984,1.766,1.221,0.514,0.937,0.865,�k�k��,5.0,��
2017/07/30,11:50,0.948,1.476,0.986,1.763,1.225,0.515,0.939,0.866,�k�k��,5.2,��
2017/07/30,12:00,0.947,1.479,0.984,1.767,1.224,0.512,0.939,0.866,�k�k��,5.8,��
2017/07/30,12:10,0.947,1.480,0.985,1.767,1.224,0.515,0.938,0.866,�k,5.5,��
2017/07/30,12:20,0.948,1.480,0.984,1.769,1.226,0.515,0.941,0.865,�k�k��,5.3,��
2017/07/30,12:30,0.947,1.481,0.986,1.767,1.225,0.513,0.940,0.866,�k�k��,4.7,��
2017/07/30,12:40,0.950,1.482,0.987,1.769,1.229,0.515,0.938,0.868,�k,5.4,��
2017/07/30,12:50,0.950,1.484,0.987,1.770,1.225,0.513,0.940,0.867,�k�k��,5.1,��
2017/07/30,13:00,0.951,1.482,0.986,1.773,1.228,0.516,0.940,0.870,�k,6.4,��
2017/07/30,13:10,0.949,1.486,0.987,1.769,1.230,0.515,0.940,0.866,�k�k��,6.1,��
2017/07/30,13:20,0.951,1.485,0.988,1.772,1.229,0.514,0.940,0.867,�k�k��,6.1,��
2017/07/30,13:30,0.951,1.485,0.985,1.772,1.227,0.513,0.940,0.868,�k�k��,5.7,��
2017/07/30,13:40,0.950,1.487,0.986,1.772,1.232,0.514,0.940,0.868,�k�k��,5.3,��
2017/07/30,13:50,0.951,1.486,0.987,1.773,1.232,0.515,0.941,0.868,�k�k��,4.1,��
2017/07/30,14:00,0.950,1.487,0.988,1.773,1.230,0.513,0.941,0.869,�k�k��,5.2,��
2017/07/30,14:10,0.953,1.485,0.990,1.774,1.232,0.516,0.940,0.869,�k�k��,6.1,��
2017/07/30,14:20,0.953,1.489,0.990,1.771,1.229,0.513,0.942,0.868,�k�k��,6.2,��
2017/07/30,14:30,0.953,1.486,0.989,1.774,1.229,0.514,0.940,0.869,�k�k��,6.1,��
2017/07/30,14:40,0.952,1.487,0.990,1.773,1.231,0.515,0.941,0.868,�k�k��,6.1,��
2017/07/30,14:50,0.954,1.488,0.989,1.777,1.230,0.515,0.939,0.870,�k�k��,6.3,��
2017/07/30,15:00,0.950,1.490,0.990,1.776,1.232,0.515,0.941,0.869,�k�k��,5.5,��
2017/07/30,15:10,0.952,1.490,0.990,1.775,1.234,0.513,0.942,0.867,�k�k��,5.3,��
2017/07/30,15:20,0.951,1.487,0.987,1.775,1.231,0.516,0.943,0.868,�k�k��,6.1,��
2017/07/30,15:30,0.953,1.489,0.988,1.774,1.233,0.515,0.943,0.870,�k�k��,6.0,��
2017/07/30,15:40,0.953,1.487,0.989,1.775,1.232,0.515,0.941,0.868,�k��,6.2,��
2017/07/30,15:50,0.951,1.488,0.987,1.779,1.232,0.515,0.940,0.868,�k�k��,6.1,��
2017/07/30,16:00,0.950,1.489,0.990,1.778,1.233,0.516,0.940,0.868,�k�k��,5.6,��
2017/07/30,16:10,0.951,1.487,0.990,1.779,1.232,0.514,0.940,0.867,�k�k��,4.6,��
2017/07/30,16:20,0.952,1.489,0.988,1.780,1.228,0.515,0.940,0.870,�k�k��,4.3,��
2017/07/30,16:30,0.949,1.487,0.989,1.779,1.229,0.514,0.940,0.868,�k�k��,4.1,��
2017/07/30,16:40,0.950,1.491,0.989,1.782,1.232,0.515,0.940,0.869,�k�k��,3.2,��
2017/07/30,16:50,0.953,1.490,0.990,1.780,1.233,0.515,0.941,0.868,�k�k��,3.6,��
2017/07/30,17:00,0.953,1.490,0.990,1.781,1.236,0.516,0.940,0.866,�k�k��,3.8,��
2017/07/30,17:10,0.953,1.490,0.991,1.781,1.233,0.516,0.941,0.868,�k,3.5,��
2017/07/30,17:20,0.952,1.489,0.990,1.777,1.235,0.516,0.942,0.870,�k,3.7,��
2017/07/30,17:30,0.952,1.491,0.992,1.779,1.234,0.516,0.941,0.871,�k,3.2,��
2017/07/30,17:40,0.952,1.491,0.992,1.778,1.234,0.515,0.940,0.872,�k�k��,3.0,��
2017/07/30,17:50,0.950,1.492,0.992,1.779,1.234,0.516,0.943,0.872,�k,2.0,�L
2017/07/30,18:00,0.951,1.490,0.992,1.781,1.233,0.515,0.943,0.871,�k,2.6,�L
2017/07/30,18:10,0.951,1.491,0.992,1.779,1.231,0.515,0.943,0.874,�k�k��,1.5,�L
2017/07/30,18:20,0.951,1.488,0.988,1.779,1.231,0.514,0.941,0.871,�k�k��,2.0,�L
2017/07/30,18:30,0.951,1.491,0.990,1.778,1.224,0.512,0.941,0.872,�k�k��,2.3,�L
2017/07/30,18:40,0.951,1.488,0.988,1.777,1.219,0.512,0.941,0.871,�k,2.3,�L
2017/07/30,18:50,0.950,1.491,0.988,1.778,1.220,0.509,0.941,0.872,�k,2.6,��
2017/07/30,19:00,0.952,1.490,0.989,1.776,1.218,0.509,0.941,0.869,�k,2.6,��
2017/07/30,19:10,0.953,1.487,0.991,1.779,1.219,0.512,0.941,0.874,�k,2.9,��
2017/07/30,19:20,0.952,1.492,0.990,1.777,1.221,0.512,0.939,0.871,�k,1.9,��
2017/07/30,19:30,0.952,1.489,0.990,1.776,1.222,0.510,0.939,0.871,�k,3.6,��
2017/07/30,19:40,0.952,1.488,0.992,1.778,1.220,0.511,0.941,0.873,�k,3.1,��
2017/07/30,19:50,0.951,1.491,0.991,1.778,1.219,0.511,0.939,0.872,�k,3.4,��
2017/07/30,20:00,0.955,1.491,0.993,1.775,1.219,0.511,0.938,0.872,�k,3.4,��
2017/07/30,20:10,0.952,1.491,0.990,1.780,1.221,0.511,0.942,0.871,�k,3.5,��
2017/07/30,20:20,0.951,1.490,0.991,1.778,1.223,0.511,0.939,0.871,�k�k��,2.8,��
2017/07/30,20:30,0.953,1.489,0.989,1.780,1.221,0.512,0.941,0.873,�k,2.6,�L
2017/07/30,20:40,0.951,1.491,0.991,1.780,1.222,0.512,0.940,0.871,�k�k��,3.2,�L
2017/07/30,20:50,0.950,1.488,0.989,1.778,1.220,0.511,0.941,0.870,�k,3.3,�L
2017/07/30,21:00,0.949,1.489,0.987,1.778,1.221,0.512,0.938,0.871,�k�k��,3.2,�L
2017/07/30,21:10,0.950,1.487,0.989,1.774,1.219,0.511,0.939,0.874,�k�k��,3.6,�L
2017/07/30,21:20,0.950,1.488,0.988,1.778,1.218,0.511,0.938,0.872,�k�k��,3.0,�L
2017/07/30,21:30,0.946,1.484,0.987,1.776,1.217,0.510,0.940,0.871,�k�k��,3.1,�L
2017/07/30,21:40,0.949,1.486,0.987,1.776,1.217,0.511,0.938,0.871,�k��,2.5,�L
2017/07/30,21:50,0.948,1.482,0.986,1.777,1.219,0.512,0.939,0.873,�k��,2.5,�L
2017/07/30,22:00,0.948,1.484,0.986,1.772,1.217,0.509,0.938,0.872,�k��,1.9,�L
2017/07/30,22:10,0.946,1.483,0.988,1.772,1.217,0.510,0.940,0.871,�k��,2.9,�L
2017/07/30,22:20,0.947,1.482,0.987,1.773,1.214,0.512,0.938,0.870,�k��,3.8,�L
2017/07/30,22:30,0.948,1.481,0.984,1.778,1.217,0.512,0.938,0.871,�k�k��,4.0,�L
2017/07/30,22:40,0.946,1.483,0.985,1.773,1.219,0.512,0.938,0.871,�k��,4.0,�L
2017/07/30,22:50,0.947,1.481,0.985,1.773,1.218,0.512,0.937,0.873,�k��,3.8,�L
2017/07/30,23:00,0.949,1.482,0.985,1.773,1.217,0.512,0.937,0.870,�k��,3.6,�L
2017/07/30,23:10,0.946,1.478,0.988,1.772,1.217,0.512,0.939,0.870,�k��,4.0,�L
2017/07/30,23:20,0.944,1.480,0.985,1.773,1.219,0.511,0.937,0.871,�k�k��,4.7,�L
2017/07/30,23:30,0.946,1.481,0.986,1.772,1.216,0.512,0.939,0.870,�k�k��,4.3,�L
2017/07/30,23:40,0.945,1.479,0.985,1.770,1.217,0.512,0.938,0.871,�k�k��,3.6,�L
2017/07/30,23:50,0.944,1.481,0.983,1.772,1.217,0.512,0.937,0.869,�k�k��,3.0,�L
